Location: Bonningues
(50.7927°N, 2.0150°E)
Time: 07:11:58
(UTC+00:00)

Terra - Pass Details

Date: 08 August 2020
Orbit: 701 x 703 km, 98.2° (Epoch: 26 September)

Event Time Altitude Azimuth Distance (km) Brightness Sun altitude
Exits shadow 20:20:57 - 111° (ESE) 2,234 3.8 -8.3°
Reaches altitude 10° 20:21:09 10° 109° (ESE) 2,173 3.8 -8.4°
Maximum altitude 20:24:46 22° 59° (ENE) 1,515 3.4 -8.8°
Drops below altitude 10° 20:28:25 10° 10° (N) 2,185 4.8 -9.3°
Sets 20:31:05 0° 355° (N) 3,108 5.9 -9.6°
